Location: ??????
(38.0677°N, 22.9870°E)
Time: 09:26:14
(UTC+00:00)

Cosmos 2227 Rocket - Pass Details

Date: 23 May 2024
Orbit: 838 x 845 km, 71.0° (Epoch: 23 June)

Event Time Altitude Azimuth Distance (km) Brightness Sun altitude
Rises 02:20:23 0° 170° (S) 3,383 5.1 -9.4°
Reaches altitude 10° 02:23:07 10° 159° (SSE) 2,454 4.5 -9.0°
Maximum altitude 02:27:49 28° 102° (ESE) 1,544 4.1 -8.2°
Drops below altitude 10° 02:32:31 10° 46° (NE) 2,470 6.3 -7.4°
Sets 02:35:17 0° 35° (NE) 3,409 6.8 -7.0°
